Powrót do katalogu

STARLINK-34141

AktywnyŁącznośćVLEO
NORAD 64020·PAYLOAD·🇺🇸 United States

Wystrzelony May 14, 2025 z Cape Canaveral Space Force Station

Loading…

Następne Przeloty (najbliższe 24 godziny)

TLE

ŚwieżeSource: CelesTrak SupGP

Epoka: Sep 14, 2026, 14:52 UTC

1 64020C 25101AC  26257.61993056 -.00026714  00000+0 -96787-3 0  2570
2 64020  43.0042  11.0612 0001423 273.0358 268.7732 15.27581915    16

Śledź STARLINK-34141 w czasie rzeczywistym z AllMySat

Download on the App Store